Weather in Lykhivka

Ukraine / Dnipropetrovsk Region     48°40′22″N   33°55′02″E
temp.,
°C
wind,
m/s
gust,
m/s
humid.,
%
clouds,
%
prec.,
mm/h
press.,
hPa
HPBL,
m
16 june, wed
wed1600:00+17ese128597 2.8 100915
03:00+17ene1183100 2.8 100915
06:00+17e118599 0.1 100933
09:00+19ne2382100 0.8 1010219
12:00+22e4572100 1.9 1011583
15:00+23ne3362100 3.0 10111045
18:00+25ene22530 0.0 10111585
21:00+18w01790 0.6 101317
17 june, thu
thu1700:00+18nne338594 0.0 101331
03:00+17nne4690100 0.0 1013105
06:00+17nne3892100 0.0 1014238
09:00+22ne6108153 0.3 1015547
12:00+25ene796880 2.9 10151098
15:00+24e7977100 4.9 1015968
18:00+19ese4797100 10.8 1015384
21:00+19nne3109729 14.8 1016329
18 june, fri
fri1800:00+19ne7149576 2.4 1016460
03:00+19ne8159582 5.0 1016706
06:00+18ene81493100 0.3 1017629
09:00+19ene9138869 0.3 1018782
12:00+21e8118151 0.1 1018964
15:00+23e8107117 0.3 10191240
18:00+22e710795 0.4 1019960
21:00+20e5118898 0.6 1020422
19 june, sat
sat1900:00+18e4119499 0.1 1021380
03:00+18e5109118 0.1 1020358
06:00+17ene5108648 0.0 1021398
09:00+20ene79760 0.0 1020646
12:00+23ene710650 0.0 10201123
15:00+24e8106365 0.0 10191379
18:00+23e61076100 0.1 1018649
21:00+21ene613799 0.1 1019464
20 june, sun
sun2000:00+19ene5138485 0.0 1018377
03:00+18ene61283100 0.0 1018357
06:00+17ene61179100 0.0 1018314
09:00+20ene71168100 0.0 1018535
12:00+24e8115797 0.0 1016842
15:00+26e71158100 0.1 10151214
18:00+25e611685 0.0 10141177
21:00+21ene613805 0.0 1014365